星链-1934 (STARLINK-1934 )

导读 | 星芒AI

STARLINK-1934 是 SpaceX Starlink 项目中的一颗低轨通信卫星,属于第 19 批发射的星链卫星群。该卫星于 2021 年 10 月 28 日由猎鹰 9 号火箭送入近地轨道,旨在为全球提供高速互联网服务。它运行在约 550 公里的高度,设计寿命为 5 至 7 年,具备激光通信和自动避障功能,以提高网络稳定性和安全性。STARLINK-1934 与其他星链卫星协同工作,支持偏远地区的宽带接入,推动全球互联网覆盖的普及。

基本信息
目录编号:
46792
目录名称:
STARLINK-1934
国际标识:
2020-074BF
轨道中心:
EARTH
卫星名称:
星链-1934
卫星全名:
星链-1934 (STARLINK-1934 )
卫星状态:
在轨 (已飞行1879 天)
发射日期:
2020-10-24 UTC
国别 :
美国 (US)
星等 :
--
轨道信息
数据来源 国际轨道数据
星历时间: 2025-12-15T23:36:08+0800
1天前
查看轨道信息
半长轴: 6800.581km
偏心率: 0.0011182
轨道倾角: 53.054°
近地点辐角 56.907°
升交点赤经 317.206°
平近点角 303.301°
近地点: 414.841km
远地点: 430.051km
周期: 93.021分钟
每日圈数: 15.480456
详细信息
固有亮度:
5
最大亮度:
2.5
卫星平台:
Starlink V1.0
覆盖范围:
全球
运营商:
太空探索技术公司
运营商所在国:
美国
制造商(研发单位):
太空探索技术公司
制造商所在国:
美国
使用方式:
暂无
卫星简介
星链(Starlink)计划是由太空探索技术公司(SpaceX)提出的一个巨型低轨卫星互联网星座项目,计划在2019年至2024年间在太空搭建由约1.2万颗卫星组成的“星链”网络,其中1584颗将部署在地球上空550千米处的近地轨道,并从2020年开始工作。该卫星仍在工作。
2D轨道图
3D轨道图
轨道高度分析图
轨道倾角分析图
轨道综合分析图
查看轨道综合分析图